Content
SEND FEEDBACK

Daily
Averages
Monthly
Summary
Canada

QUEBEC CITY, QUEBEC


Home > North America > Canada > Quebec
Elevation: 239 feet     Latitude: 46 48N     Longitude: 071 23W

WEATHER
 
SELECT A DAY
Number of Records: 192,604;   Date Range: 6/30/96 - 8/31/14
 
SHARE

PRINT THIS DATA

[ ← Previous Day ]
WEATHER ALMANAC - MAY 13, 2014
[ Next Day → ]
[ °C ]   °F
Weather ElementAverageHighLow
Temperature49.6 °F62.6 °F (4:00 pm)36 °F (5:00 am)
Dewpoint33.2 °F37.4 °F (6:36 am)28.4 °F (9:00 pm)
Humidity55.1 %89 % (5:00 am)24 % (5:00 pm)
Barometer30.27 in30.35 in (7:00 am)30.19 in (8:00 pm)
Wind Speed8.9 mph16.1 mph (9:00 am)
Wind Gust24.2 mph (12:00 pm)
Weather ElementAverage
Visibility24.1 mi
Wind DirectionENE (64.7 °)

Weather ElementTotal
Precipitation---
Heating Degree Days15.7 (Base 65)
Averaged from 31 records on May 13, 2014
WEATHER CONDITIONS BREAKOUT
WIND DIRECTION BREAKOUT
WEATHER BY HOUR - MAY 13, 2014
[ °C ]   °F
Local TimeTemperatureDewpointHumidityBarometerVisibilityWind DirectionWind SpeedGust SpeedPrecipitationEventsConditions
1:00 AM41.0 °F33.8 °F76 %30.28 in15.0 miNE (50°)6.9 mphPartly Cloudy
2:00 AM39.0 °F34.0 °F77 %30.28 inCalm
2:00 AM39.2 °F33.8 °F81 %30.28 in15.0 miNE (40°)6.9 mphPartly Cloudy
3:00 AM37.4 °F33.8 °F87 %30.29 in15.0 miNNE (20°)5.8 mphPartly Cloudy
4:00 AM37.4 °F33.8 °F87 %30.29 in15.0 miNE (50°)5.8 mphPartly Cloudy
5:00 AM36.0 °F34.0 °F89 %30.31 inNE (40°)2.3 mph
5:00 AM37.4 °F33.8 °F87 %30.30 in15.0 miNNE (30°)4.6 mphScattered Clouds
5:17 AM37.4 °F33.8 °F87 %30.32 in15.0 miNE (40°)4.6 mphMostly Cloudy
6:00 AM39.2 °F35.6 °F87 %30.32 in30.0 miNE (50°)5.8 mphMostly Cloudy
6:36 AM41.0 °F37.4 °F87 %30.34 in30.0 miENE (70°)5.8 mphPartly Cloudy
7:00 AM42.8 °F37.4 °F81 %30.35 in30.0 miEast (90°)4.6 mphPartly Cloudy
8:00 AM45.0 °F37.0 °F64 %30.32 inEast (80°)8.1 mph
8:00 AM44.6 °F33.8 °F66 %30.33 in30.0 miEast (80°)6.9 mphPartly Cloudy
9:00 AM48.2 °F33.8 °F58 %30.33 in30.0 miENE (70°)16.1 mphPartly Cloudy
11:00 AM55.0 °F34.0 °F32 %30.32 inEast (80°)10.4 mph
12:00 PM57.2 °F33.8 °F41 %30.32 in30.0 miENE (60°)11.5 mph24.2 mphPartly Cloudy
1:00 PM59.0 °F32.0 °F36 %30.30 in30.0 miEast (80°)12.7 mphPartly Cloudy
2:00 PM60.0 °F33.0 °F25 %30.25 inEast (90°)10.4 mph
2:00 PM60.8 °F33.8 °F36 %30.28 in30.0 miENE (60°)12.7 mphPartly Cloudy
3:00 PM60.8 °F32.0 °F34 %30.26 in30.0 miEast (80°)11.5 mph17.3 mphMostly Cloudy
4:00 PM62.6 °F35.6 °F37 %30.26 in30.0 miEast (80°)10.4 mphOvercast
5:00 PM61.0 °F34.0 °F24 %30.23 inEast (80°)10.4 mph
5:00 PM60.8 °F35.6 °F39 %30.25 in30.0 miENE (60°)11.5 mph17.3 mphOvercast
6:00 PM59.0 °F33.8 °F39 %30.23 in30.0 miENE (70°)11.5 mph19.6 mphOvercast
7:00 PM55.4 °F32.0 °F41 %30.21 in30.0 miEast (80°)11.5 mphOvercast
8:00 PM54.0 °F29.0 °F26 %30.19 inENE (70°)8.1 mph
8:00 PM53.6 °F30.2 °F41 %30.21 in30.0 miENE (60°)10.4 mphOvercast
9:00 PM53.6 °F28.4 °F38 %30.21 in15.0 miENE (60°)11.5 mphOvercast
10:00 PM53.6 °F30.2 °F41 %30.20 in15.0 miENE (70°)13.8 mphOvercast
11:00 PM53.0 °F29.0 °F27 %30.19 inEast (80°)9.2 mph
11:00 PM53.6 °F28.4 °F38 %30.20 in15.0 miENE (70°)12.7 mph18.4 mphMostly Cloudy
Hourly data recorded from CYQB, located miles away from Quebec City, Quebec







STORIES FROM OUR PARTNERS